Tracking 31027 objects as of 19-Jul-2025
HD Live streaming from Space Station
objects crossing your sky now

STARLINK-5268

Track STARLINK-5268 now!
10-day predictions
STARLINK-5268 is classified as:


NORAD ID: 54192
Int'l Code: 2022-141AM
Perigee: 546.2 km
Apogee: 547.6 km
Inclination: 53.2 °
Period: 95.4 minutes
Semi major axis: 6917 km
RCS: Unknown
Launch date: October 28, 2022
Source: United States (US)
Launch site: AIR FORCE WESTERN TEST RANGE (AFWTR)
Your satellite tracking list
Your tracking list is empty




NASA's NSSDC Master Catalog

Two Line Element Set (TLE):
1 54192U 22141AM  25199.60982244  .00000280  00000-0  35653-4 0  9998
2 54192  53.2195 324.6733 0001065  83.5258 276.5855 15.08834944150896
Source of the keplerian elements: AFSPC